This is the latest recevied weather packets stored in our database for station/object KE8GJZ-2. If no packets are shown the sender has not sent any weather packets the latest 10 day(s).
| Time | Temp. | Humidity | Pressure | Rain* | Wind** | Luminosity | Snow |
|---|---|---|---|---|---|---|---|
| 1777658090 | 6.67° C | 69% | 1015.7 hPa | 0 mm | - | 147 W/m² | - |
| 1777657786 | 6.67° C | 71% | 1015.7 hPa | 0 mm | - | 114 W/m² | - |
| 1777657484 | 7.22° C | 69% | 1015.7 hPa | 0 mm | - | 103 W/m² | - |
| 1777657181 | 6.67° C | 69% | 1015.8 hPa | 0 mm | - | 96 W/m² | - |
| 1777656879 | 7.22° C | 68% | 1015.6 hPa | 0 mm | - | 84 W/m² | - |
| 1777656574 | 7.22° C | 69% | 1015.6 hPa | 0 mm | - | 85 W/m² | - |
| 1777656270 | 7.78° C | 67% | 1015.6 hPa | 0 mm | - | 83 W/m² | - |
| 1777655966 | 7.22° C | 66% | 1015.6 hPa | 0 mm | - | 124 W/m² | - |
| 1777655662 | 7.78° C | 66% | 1015.3 hPa | 0 mm | - | 172 W/m² | - |
| 1777655359 | 7.78° C | 64% | 1015.5 hPa | 0 mm | - | 142 W/m² | - |
| 1777655056 | 7.78° C | 66% | 1015.6 hPa | 0 mm | - | 203 W/m² | - |
| 1777654754 | 7.22° C | 66% | 1015.6 hPa | 0 mm | - | 215 W/m² | - |
| 1777654451 | 7.78° C | 67% | 1015.5 hPa | 0 mm | - | 288 W/m² | - |
| 1777654149 | 7.78° C | 64% | 1015.4 hPa | 0 mm | - | 320 W/m² | - |
| 1777653846 | 7.78° C | 66% | 1015.5 hPa | 0 mm | - | 546 W/m² | - |
| 1777653543 | 7.78° C | 63% | 1015.5 hPa | 0 mm | - | 302 W/m² | - |
| 1777653239 | 7.78° C | 63% | 1015.8 hPa | 0 mm | - | 483 W/m² | - |
| 1777652936 | 7.78° C | 62% | 1015.6 hPa | 0 mm | - | 513 W/m² | - |
| 1777652632 | 7.22° C | 63% | 1015.7 hPa | 0 mm | - | 371 W/m² | - |
| 1777652329 | 6.67° C | 66% | 1015.6 hPa | 0 mm | - | 540 W/m² | - |
| 1777652026 | 7.22° C | 65% | 1015.7 hPa | 0 mm | - | 343 W/m² | - |
| 1777651723 | 7.78° C | 61% | 1015.9 hPa | 0 mm | - | 395 W/m² | - |
| 1777651419 | 7.22° C | 65% | 1015.7 hPa | 0 mm | - | 730 W/m² | - |
| 1777651117 | 7.22° C | 67% | 1015.7 hPa | 0 mm | - | 239 W/m² | - |
| 1777650813 | 7.22° C | 61% | 1015.8 hPa | 0 mm | - | 189 W/m² | - |
* Rain latest hour (hover to see other rain measurements)
** Current wind speed in m/s (hover to see current wind gust speed)